Weather History for Lincoln, IL

Change the Weather History Date:

Sunday, December 9, 2012

  Actual Average (KSPI) Record (KSPI)
Temperature  
Mean Temperature 43 °F 32 °F  
Max Temperature 47 °F 40 °F 69 °F (1918)
Min Temperature 36 °F 24 °F -3 °F (1917)
Degree Days  
Heating Degree Days 22 33  
Month to date heating degree days 282  
Since 1 July heating degree days 1350  
Cooling Degree Days 0 0  
Month to date cooling degree days 0  
Year to date cooling degree days 1122  
Moisture  
Dew Point 40 °F    
Average Humidity 92    
Maximum Humidity 97    
Minimum Humidity 81    
Precipitation  
Precipitation 0.08 in 0.09 in 0.89 in (2007)
Month to date precipitation 0.84  
Year to date precipitation 35.75  
Snow  
Snow 0.00 in 0.20 in 2.80 in (1997)
Month to date snowfall 1.2  
Since 1 July snowfall 1.8  
Snow Depth -    
Sea Level Pressure  
Sea Level Pressure 29.84 in    
Wind  
Wind Speed 8 mph (NW)    
Max Wind Speed 15 mph    
Max Gust Speed 23 mph    
Visibility 6 miles    
Events Rain    
T = Trace of Precipitation, MM = Missing Value Source: NWS Daily Summary

Daily Weather History Graph

Daily Weather History Graph

Search for Another Location

Airport:

Trip Planner

Search our weather history database for the weather conditions in past years. The results will help you decide how hot, cold, wet, or windy it might be!

Date:

Astronomy

Dec. 09, 2012 Rise Set
Actual Time 7:08 AM CST 4:31 PM CST
Civil Twilight 6:37 AM CST 5:02 PM CST
Nautical Twilight 6:03 AM CST 5:36 PM CST
Astronomical Twilight 5:30 AM CST 6:08 PM CST
Moon 2:40 AM CST (12/9) 1:38 PM CST (12/9)
Length of Visible Light 10h 24m
Length of Day
9h 23m
Waning Crescent, 18% of the Moon is Illuminated
Dec 9
Waning Crescent
Dec 13
New
Dec 19
First Quarter
Dec 28
Full
Jan 4
Last Quarter

Hourly Weather History & Observations

Time (CST) Temp. Windchill Dew Point Humidity Pressure Visibility Wind Dir Wind Speed Gust Speed Precip Events Conditions
12:15 AM 39.4 °F 33.8 °F 36.7 °F 90% 30.01 in 10.0 mi ENE 8.1 mph - N/A Rain Rain
12:35 AM 39.2 °F 35.0 °F 37.0 °F 92% 30.01 in 7.0 mi East 5.8 mph - N/A   Drizzle
12:55 AM 39.2 °F 33.6 °F 37.4 °F 93% 30.01 in 7.0 mi ENE 8.1 mph - N/A Rain Rain
1:15 AM 39.4 °F 31.1 °F 37.4 °F 93% 29.98 in 7.0 mi ENE 15.0 mph - N/A Rain Rain
1:35 AM 39.4 °F 33.2 °F 37.4 °F 93% 29.98 in 7.0 mi East 9.2 mph - N/A Rain Light Rain
1:55 AM 39.4 °F 32.3 °F 37.4 °F 93% 29.97 in 7.0 mi ENE 11.5 mph - N/A Rain Light Rain
2:15 AM 39.2 °F 32.0 °F 37.4 °F 93% 29.96 in 7.0 mi ENE 11.5 mph 17.3 mph N/A Rain Light Rain
2:35 AM 39.2 °F 32.0 °F 37.6 °F 94% 29.95 in 5.0 mi ENE 11.5 mph 17.3 mph 0.01 in Rain Light Rain
2:55 AM 39.2 °F 32.0 °F 37.6 °F 94% 29.94 in 5.0 mi ENE 11.5 mph - 0.01 in   Light Drizzle
3:15 AM 39.4 °F 31.8 °F 37.8 °F 94% 29.93 in 4.0 mi ENE 12.7 mph 18.4 mph 0.01 in Rain Light Rain
3:35 AM 39.4 °F 32.3 °F 37.9 °F 95% 29.92 in 5.0 mi ENE 11.5 mph - 0.01 in   Light Drizzle
3:55 AM 39.6 °F 33.5 °F 38.3 °F 95% 29.92 in 5.0 mi East 9.2 mph 16.1 mph 0.01 in   Overcast
4:15 AM 39.7 °F 33.2 °F 38.3 °F 95% 29.92 in 4.0 mi ENE 10.4 mph - 0.01 in Rain Light Rain
4:35 AM 40.1 °F 33.6 °F 38.7 °F 95% 29.91 in 4.0 mi ENE 10.4 mph - 0.01 in   Drizzle
4:55 AM 40.3 °F 33.9 °F 39.0 °F 95% 29.89 in 4.0 mi ENE 10.4 mph - 0.02 in Rain Rain
5:15 AM 40.5 °F 34.6 °F 39.2 °F 95% 29.89 in 3.0 mi East 9.2 mph - N/A   Drizzle
5:35 AM 40.6 °F 34.8 °F 39.6 °F 96% 29.87 in 4.0 mi ENE 9.2 mph - N/A   Drizzle
5:55 AM 41.0 °F 35.2 °F 39.6 °F 95% 29.87 in 5.0 mi East 9.2 mph - N/A   Light Drizzle
6:15 AM 41.0 °F 35.2 °F 39.6 °F 95% 29.86 in 4.0 mi ENE 9.2 mph - 0.02 in Rain Light Rain
6:35 AM 41.0 °F 37.1 °F 39.6 °F 95% 29.87 in 5.0 mi East 5.8 mph - 0.02 in   Overcast
6:55 AM 41.2 °F 37.3 °F 40.1 °F 96% 29.86 in 7.0 mi East 5.8 mph - 0.02 in   Overcast
7:15 AM 41.7 °F 35.6 °F 40.3 °F 95% 29.86 in 4.0 mi East 10.4 mph - N/A   Drizzle
7:35 AM 41.7 °F 36.1 °F 40.5 °F 95% 29.86 in 2.5 mi East 9.2 mph - 0.01 in   Drizzle
7:55 AM 41.9 °F 38.2 °F 40.6 °F 95% 29.85 in 4.0 mi ESE 5.8 mph - 0.01 in   Overcast
8:15 AM 42.1 °F 37.1 °F 41.0 °F 96% 29.85 in 2.5 mi East 8.1 mph - N/A   Drizzle
8:35 AM 42.4 °F 39.6 °F 41.4 °F 96% 29.84 in 2.0 mi ESE 4.6 mph - N/A   Light Drizzle
8:55 AM 42.8 °F 39.3 °F 41.9 °F 97% 29.84 in 1.5 mi ESE 5.8 mph - N/A   Overcast
9:15 AM 43.2 °F 39.7 °F 42.1 °F 96% 29.84 in 1.8 mi SE 5.8 mph - N/A   Overcast
9:35 AM 43.7 °F 39.7 °F 42.6 °F 96% 29.83 in 2.5 mi SE 6.9 mph - N/A   Overcast
9:55 AM 43.9 °F 40.5 °F 42.8 °F 96% 29.84 in 2.5 mi SE 5.8 mph - N/A   Overcast
10:15 AM 44.2 °F 40.3 °F 43.2 °F 96% 29.84 in 2.0 mi SSE 6.9 mph - N/A   Overcast
10:35 AM 44.8 °F 41.0 °F 43.7 °F 96% 29.84 in 1.2 mi South 6.9 mph - N/A   Overcast
10:55 AM 45.3 °F 43.0 °F 44.4 °F 97% 29.80 in 0.8 mi SE 4.6 mph - N/A   Overcast
11:15 AM 46.4 °F 44.3 °F 45.1 °F 95% 29.79 in 0.8 mi SSE 4.6 mph - N/A   Overcast
11:35 AM 46.8 °F - 45.9 °F 97% 29.77 in 1.0 mi SSE 6.9 mph - N/A   Overcast
11:55 AM 47.3 °F - 46.4 °F 97% 29.77 in 2.0 mi SSW 4.6 mph - N/A   Overcast
12:15 PM 47.8 °F - 46.8 °F 96% 29.78 in 1.8 mi SSW 5.8 mph - N/A   Overcast
12:35 PM 47.8 °F - 46.8 °F 96% 29.78 in 2.0 mi WSW 5.8 mph - N/A   Overcast
12:55 PM 47.8 °F - 46.6 °F 95% 29.78 in 2.0 mi WSW 4.6 mph - N/A   Overcast
1:15 PM 47.7 °F - 46.4 °F 95% 29.77 in 2.0 mi WSW 6.9 mph - N/A   Light Drizzle
1:35 PM 47.5 °F - 46.4 °F 96% 29.77 in 2.5 mi West 8.1 mph - N/A   Overcast
1:55 PM 47.5 °F - 45.7 °F 93% 29.77 in 4.0 mi West 5.8 mph - N/A   Overcast
2:15 PM 47.3 °F - 45.1 °F 92% 29.76 in 5.0 mi West 9.2 mph - N/A Rain Light Rain
2:35 PM 46.8 °F - 44.8 °F 93% 29.76 in 5.0 mi West 4.6 mph - N/A   Overcast
2:55 PM 46.6 °F - 44.2 °F 92% 29.76 in 7.0 mi West 5.8 mph - N/A   Overcast
3:15 PM 46.4 °F 42.4 °F 43.7 °F 90% 29.77 in 10.0 mi West 8.1 mph - N/A   Overcast
3:35 PM 45.9 °F 43.6 °F 43.0 °F 90% 29.77 in 7.0 mi West 4.6 mph - N/A   Overcast
3:55 PM 45.7 °F 43.4 °F 42.8 °F 90% 29.77 in 10.0 mi West 4.6 mph - N/A   Overcast
4:15 PM 45.5 °F 42.5 °F 42.8 °F 90% 29.77 in 10.0 mi West 5.8 mph - N/A   Overcast
4:35 PM 45.5 °F 43.2 °F 43.0 °F 91% 29.77 in 7.0 mi WNW 4.6 mph - 0.01 in   Overcast
4:55 PM 44.6 °F 40.2 °F 42.3 °F 91% 29.78 in 7.0 mi WNW 8.1 mph 17.3 mph 0.01 in   Overcast
5:15 PM 44.2 °F 41.0 °F 42.1 °F 92% 29.78 in 7.0 mi WNW 5.8 mph 16.1 mph N/A   Overcast
5:35 PM 44.1 °F 39.0 °F 41.4 °F 90% 29.78 in 10.0 mi WNW 9.2 mph 16.1 mph N/A   Overcast
5:55 PM 44.1 °F 39.5 °F 41.0 °F 89% 29.78 in 10.0 mi WNW 8.1 mph 19.6 mph N/A   Overcast
6:15 PM 43.7 °F 38.1 °F 40.5 °F 88% 29.79 in 10.0 mi WNW 10.4 mph 18.4 mph N/A   Overcast
6:35 PM 43.0 °F 37.2 °F 39.6 °F 88% 29.79 in 10.0 mi WNW 10.4 mph - N/A   Overcast
6:55 PM 42.8 °F 35.8 °F 39.0 °F 86% 29.80 in 10.0 mi WNW 13.8 mph 18.4 mph N/A   Overcast
7:15 PM 42.4 °F 38.1 °F 38.1 °F 85% 29.81 in 10.0 mi West 6.9 mph 17.3 mph N/A   Overcast
7:35 PM 42.3 °F 37.3 °F 38.3 °F 86% 29.81 in 10.0 mi WNW 8.1 mph - N/A   Overcast
7:55 PM 42.1 °F 37.7 °F 37.9 °F 85% 29.81 in 10.0 mi WNW 6.9 mph - N/A   Overcast
8:15 PM 41.9 °F 37.5 °F 37.8 °F 85% 29.81 in 10.0 mi WNW 6.9 mph - N/A   Overcast
8:35 PM 41.9 °F 35.9 °F 36.9 °F 82% 29.80 in 10.0 mi WNW 10.4 mph - N/A   Overcast
8:55 PM 41.9 °F 37.5 °F 37.4 °F 84% 29.80 in 10.0 mi WNW 6.9 mph - N/A   Overcast
9:15 PM 41.9 °F 38.2 °F 36.9 °F 82% 29.80 in 10.0 mi WNW 5.8 mph - N/A   Overcast
9:35 PM 41.5 °F 37.1 °F 36.9 °F 83% 29.81 in 10.0 mi WNW 6.9 mph - N/A   Overcast
9:55 PM 41.5 °F 37.1 °F 37.4 °F 85% 29.81 in 10.0 mi West 6.9 mph - N/A   Overcast
10:15 PM 41.5 °F 38.6 °F 36.9 °F 83% 29.81 in 10.0 mi West 4.6 mph - N/A   Overcast
10:35 PM 41.0 °F 37.1 °F 35.6 °F 81% 29.80 in 10.0 mi West 5.8 mph - N/A   Overcast
10:55 PM 41.4 °F 35.2 °F 36.5 °F 83% 29.81 in 10.0 mi WNW 10.4 mph 16.1 mph N/A   Overcast
11:15 PM 40.5 °F 35.1 °F 35.6 °F 83% 29.82 in 10.0 mi WNW 8.1 mph 16.1 mph N/A   Overcast
11:35 PM 39.0 °F 32.3 °F 34.3 °F 83% 29.82 in 10.0 mi WNW 10.4 mph 18.4 mph N/A   Overcast
11:55 PM 36.9 °F 29.1 °F 32.4 °F 84% 29.82 in 10.0 mi WNW 11.5 mph 23.0 mph N/A   Overcast